Weather Roundup
Issued by NWS Springfield, MO

Home | Current Version | Previous Version | Text Only | Print | Product List | Glossary On
Versions: 1 2 3 4 5 6 7 8 9 10 11 12 13 14 15 16 17 18 19 20 21 22 23 24 25 26 27 28 29 30 31 32 33 34 35 36 37 38 39 40 41 42 43 44 45 46 47 48 49 50
310
NZUS99 KSGF 130507
HRRSGF

HOURLY WEATHER
NATIONAL WEATHER SERVICE SPRINGFIELD MO
1100 PM CST FRI FEB 12 2016

......SGF CWA......

CITY           SKY/WX    TMP DP  RH WIND       PRES   REMARKS
SPRINGFIELD    CLEAR     27   9  46 N12       30.49R WCI  17
JOPLIN         CLOUDY    31  17  56 N9        30.54R WCI  23
WEST PLAINS    CLEAR     27  10  49 N7        30.46S WCI  19
ROLLA          CLEAR     20   6  55 N13       30.50R WCI   7
OSAGE BEACH    CLEAR     21   1  42 N8        30.54R WCI  12

......SURROUNDING SGF CWA......

CITY           SKY/WX    TMP DP  RH WIND       PRES   REMARKS
CHANUTE        CLOUDY    30  12  47 N12       30.55R WCI  20
PARSONS        CLOUDY    32  15  49 NE10      30.55R WCI  24
COFFEYVILLE    CLEAR     33  17  51 NE14      30.54R WCI  23
EMPORIA        CLOUDY    26   9  48 NE16      30.54F WCI  14
GROVE OK       CLEAR     34  19  55 NE9       30.52R WCI  26
ROGERS AR      CLEAR     31  21  66 NE10      30.47S WCI  22
SILOAM SPRINGS CLOUDY    36  19  51 NE9       30.47R WCI  29
HARRISON AR    CLEAR     31  19  61 N6        30.46R WCI  25
NEAR YELLVILLE CLEAR     36  14  41 N8        30.46S WCI  29

......KANSAS AND MISSOURI......

CITY           SKY/WX    TMP DP  RH WIND       PRES   REMARKS
KANSAS CTY INT CLOUDY    19   7  59 N14       30.59S WCI   6
DOWNTOWN KC    CLOUDY    22   6  50 NE9       30.61R WCI  12
COLUMBIA       CLOUDY    19   8  62 N16       30.55R WCI   4
SEDALIA        CLEAR     20   3  48 N13       30.59R WCI   7
ST JOSEPH      CLOUDY    17   5  59 N12       30.63F WCI   4
ST LOUIS       CLEAR     20   5  52 NW14      30.53R WCI   7
SPIRIT OF STL  CLEAR     19   2  47 NW13      30.54R WCI   6
KIRKSVILLE     CLOUDY    11   1  64 NW13      30.59S WCI  -4
WICHITA        CLOUDY    33  20  58 NE14      30.52R WCI  23
TOPEKA         CLOUDY    23   8  52 N12       30.62R WCI  12
OLATHE         CLOUDY    22   6  50 N10       30.57S WCI  11

......TENNESSEE......

CITY           SKY/WX    TMP DP  RH WIND       PRES   REMARKS
MEMPHIS        CLEAR     40  25  55 NE16      30.41R WCI  31
NASHVILLE      PTCLDY    30  18  60 N12       30.38R WCI  20

......ARKANSAS.......

CITY           SKY/WX    TMP DP  RH WIND       PRES   REMARKS
FAYETTEVILLE   CLOUDY    37  26  64 N5        30.45R WCI  33
FT SMITH       CLOUDY    45  24  43 NE9       30.44R
LITTLE ROCK    PTCLDY    47  25  42 N13       30.43R

......OKLAHOMA.......

CITY           SKY/WX    TMP DP  RH WIND       PRES   REMARKS
TULSA          CLOUDY    40  25  55 N12G21    30.49R WCI  33
PONCA CITY     CLOUDY    37  22  54 NE16      30.50R WCI  28
MCALESTER      CLOUDY    44  27  51 NE7       30.42F
OKLAHOMA CITY  PTCLDY    40  27  59 NE10      30.44R WCI  33

......IOWA............

CITY           SKY/WX    TMP DP  RH WIND       PRES   REMARKS
DES MOINES     CLOUDY     6  -3  66 NW7       30.63R WCI  -6
QUAD CITIES    CLEAR      9  -4  55 NW13G21   30.55R WCI  -7

......ILLINOIS........

CITY           SKY/WX    TMP DP  RH WIND       PRES   REMARKS
QUINCY         CLOUDY    11   1  64 NW16      30.56R WCI  -6
CHICAGO        PTCLDY     8  -8  48 N21       30.44R WCI -12




USA.gov is the U.S. government's official web portal to all federal, state and local government web resources and services.